Palos Park, Illinois, United States (60464)
Lat: 41.67N, Lon: 87.83W
Wx Zone: ILZ014
Local Info
Past Weather Observations for Monday, November 17, 2014

NOTE: This archive is for the closest National Weather Service station to Palos Park. Information may differ from the station used for current weather conditions.

Click here for Long-term Archive

Time Weather Temperature Dewpoint Humidity Pressure Winds Precip Visibility
23:53
Partly Cloudy
Light Snow
12°F / -11°C 5°F / -15°C 73% 29.98 in
(1015 mb)
W 15 mph
(W 24 kph)
0.00 in
(0.00 mm)
10SM
23:25
Partly Cloudy
Light Snow
12°F / -11°C 3°F / -16°C 67% 29.98 in
(1015 mb)
SSW 18.4 mph
(SSW 30 kph)
0.00 in
(0.00 mm)
10SM
22:53
Mostly Cloudy
Light Snow
14°F / -10°C 5°F / -15°C 67% 29.98 in
(1015 mb)
W 13.8 mph
(W 22 kph)
0.00 in
(0.00 mm)
10SM
21:53
Mostly Cloudy
Light Snow
14°F / -10°C 3°F / -16°C 62% 30.01 in
(1016 mb)
W 16.1 mph
(W 26 kph)
0.00 in
(0.00 mm)
10SM
21:23
Overcast
Light Snow
14°F / -10°C 5°F / -15°C 67% 30.01 in
(1016 mb)
W 16.1 mph
(W 26 kph)
0.00 in
(0.00 mm)
7SM
20:53
Overcast
Light Snow
14°F / -10°C 7°F / -14°C 73% 29.98 in
(1015 mb)
SSW 19.6 mph
(SSW 32 kph)
0.00 in
(0.00 mm)
3SM
20:15
Overcast
Light Snow
14°F / -10°C 3°F / -16°C 62% 29.98 in
(1015 mb)
W 16.1 mph
(W 26 kph)
0.00 in
(0.00 mm)
9SM
19:53
Mostly Cloudy
Light Snow
16°F / -9°C 3°F / -16°C 57% 30.01 in
(1016 mb)
W 16.1 mph
(W 26 kph)
0.00 in
(0.00 mm)
9SM
19:29
Mostly Cloudy
Light Snow
16°F / -9°C 3°F / -16°C 57% 29.98 in
(1015 mb)
SSW 18.4 mph
(SSW 30 kph)
0.00 in
(0.00 mm)
9SM
19:13
Overcast
Light Snow
16°F / -9°C 5°F / -15°C 62% 29.98 in
(1015 mb)
SSW 19.6 mph
(SSW 32 kph)
0.00 in
(0.00 mm)
9SM
18:53
Overcast
Light Snow
16°F / -9°C 5°F / -15°C 62% 29.98 in
(1015 mb)
SSW 19.6 mph
(SSW 32 kph)
0.00 in
(0.00 mm)
8SM
17:53
Mostly Cloudy
Light Snow
16°F / -9°C 3°F / -16°C 57% 29.98 in
(1015 mb)
W 15 mph
(W 24 kph)
0.00 in
(0.00 mm)
9SM
16:53
Mostly Cloudy
Light Snow
18°F / -8°C 3°F / -16°C 53% 29.95 in
(1014 mb)
W 23 mph
(W 37 kph)
0.00 in
(0.00 mm)
9SM
15:53
Mostly Cloudy
18°F / -8°C 1°F / -17°C 49% 29.92 in
(1013 mb)
SSW 24.2 mph
(SSW 39 kph)
0.00 in
(0.00 mm)
10SM
14:53
Overcast
Light Snow
18°F / -8°C 3°F / -16°C 53% 29.89 in
(1012 mb)
W 21.9 mph
(W 35 kph)
0.00 in
(0.00 mm)
9SM
13:53
Mostly Cloudy
18°F / -8°C 3°F / -16°C 53% 29.86 in
(1011 mb)
SSW 24.2 mph
(SSW 39 kph)
- 10SM
12:53
Mostly Cloudy
19°F / -7°C 3°F / -16°C 49% 29.83 in
(1010 mb)
SSW 23 mph
(SSW 37 kph)
- 10SM
11:53
Mostly Cloudy
25°F / -4°C 7°F / -14°C 46% 29.83 in
(1010 mb)
SSW 24.2 mph
(SSW 39 kph)
- 10SM
10:53
Partly Cloudy
23°F / -5°C 9°F / -13°C 54% 29.83 in
(1010 mb)
W 15 mph
(W 24 kph)
- 10SM
09:53
Partly Cloudy
19°F / -7°C 9°F / -13°C 63% 29.86 in
(1011 mb)
SSW 15 mph
(SSW 24 kph)
- 10SM
08:53
Partly Cloudy
18°F / -8°C 9°F / -13°C 68% 29.89 in
(1012 mb)
SSW 15 mph
(SSW 24 kph)
- 10SM
07:53
Partly Cloudy
16°F / -9°C 9°F / -13°C 73% 29.89 in
(1012 mb)
W 10.4 mph
(W 17 kph)
- 10SM
06:53
Partly Cloudy
14°F / -10°C 7°F / -14°C 73% 29.89 in
(1012 mb)
W 10.4 mph
(W 17 kph)
- 10SM
05:53
Partly Cloudy
16°F / -9°C 7°F / -14°C 67% 29.89 in
(1012 mb)
W 9.2 mph
(W 15 kph)
- 10SM
04:53
Partly Cloudy
16°F / -9°C 7°F / -14°C 67% 29.89 in
(1012 mb)
W 12.7 mph
(W 20 kph)
- 10SM
03:53
Partly Cloudy
18°F / -8°C 7°F / -14°C 62% 29.89 in
(1012 mb)
W 12.7 mph
(W 20 kph)
- 10SM
02:53
Partly Cloudy
18°F / -8°C 9°F / -13°C 68% 29.89 in
(1012 mb)
W 11.5 mph
(W 19 kph)
- 10SM
01:53
Mostly Cloudy
19°F / -7°C 9°F / -13°C 63% 29.89 in
(1012 mb)
W 11.5 mph
(W 19 kph)
- 10SM
00:53
Mostly Cloudy
21°F / -6°C 14°F / -10°C 74% 29.89 in
(1012 mb)
WNW 13.8 mph
(WNW 22 kph)
- 10SM
Time Weather Temperature Dewpoint Humidity Pressure Winds Precip Visibility


Weather for websites

WeatherForYou.com, LLC is not responsible for any damages or problems caused by this service. Current weather conditions are obtained from the closest station including government and personal stations which may have varying degrees of accuracy. Weather forecasts are derived from the NOAA NDFD. Like all things, this site belongs to Jesus Christ... He just trusts me to maintain it. If you have any questions or comments email webmaster@weatherforyou.com

Copyright © 2014, WeatherForYou.com LLC. All rights reserved.